This demonstration page uses our WeatherBlox Daily Observations layout. Learn more.

Left ArrowRight Arrow

Hourly Observations for May 19, 2022

Temp ( °F °C ) Dew Point ( °F °C ) Humidity (%) Winds ( mph kmh ) Pressure ( in mb ) Visibility ( mi km ) Precip ( " mm )
12:53 am 00:53 Mostly Cloudy 63 17.2 61 16.1 93 93 W 5 7 29.80 1009 10 16 0.00 0.00
1:03 am 01:03 Partly Cloudy 62 16.7 61 16.1 96 96 W 3 6 29.80 1009 10 16 0.00 0.00
1:53 am 01:53 Clear with Mist and Fog 60 15.6 59 15 96 96 Calm 29.79 1009 4 6 0.00 0.00
2:01 am 02:01 Clear with Mist and Fog 60 15.6 58 14.4 93 93 Calm 29.80 1009 2 2 0.00 0.00
2:04 am 02:04 Mostly Cloudy with Mist and Fog 59 15 58 14.4 96 96 Calm 29.80 1009 1 1 0.00 0.00
2:23 am 02:23 Mostly Cloudy with Fog 58 14.4 57 13.9 97 97 Calm 29.80 1009 0 0 0.00 0.00
2:53 am 02:53 Mostly Cloudy with Fog 58 14.4 57 13.9 97 97 Calm 29.79 1009 1 1 0.00 0.00
2:57 am 02:57 Mostly Clear with Mist and Fog 58 14.4 57 13.9 97 97 Calm 29.80 1009 1 2 0.00 0.00
3:00 am 03:00 Mostly Clear with Mist and Fog 58 14.4 57 13.9 97 97 Calm 29.80 1009 2 3 0.00 0.00
3:03 am 03:03 Mostly Cloudy with Mist and Fog 57 13.9 56 13.3 96 96 Calm 29.80 1009 1 2 0.00 0.00
3:10 am 03:10 Mostly Cloudy with Fog 56 13.3 55 12.8 97 97 Calm 29.79 1009 1 1 0.00 0.00
3:22 am 03:22 Mostly Cloudy with Fog 57 13.9 56 13.3 96 96 Calm 29.79 1009 0 0 0.00 0.00
3:40 am 03:40 Mostly Cloudy with Fog 57 13.9 56 13.3 96 96 Calm 29.79 1009 1 1 0.00 0.00
3:53 am 03:53 Mostly Cloudy with Mist and Fog 58 14.4 57 13.9 97 97 Calm 29.78 1008 1 1 0.00 0.00
4:00 am 04:00 Mostly Cloudy with Mist and Fog 57 13.9 57 13.9 100 100 Calm 29.79 1009 1 2 0.00 0.00
4:03 am 04:03 Clear with Mist and Fog 57 13.9 56 13.3 96 96 Calm 29.79 1009 1 1 0.00 0.00
4:12 am 04:12 Mostly Cloudy with Fog 57 13.9 56 13.3 96 96 Calm 29.79 1009 1 1 0.00 0.00
4:20 am 04:20 Mostly Cloudy with Fog 57 13.9 56 13.3 96 96 Calm 29.79 1009 0 0 0.00 0.00
4:35 am 04:35 Cloudy with Mist and Fog 57 13.9 57 13.9 100 100 Calm 29.79 1009 1 1 0.00 0.00
4:47 am 04:47 Mostly Cloudy with Mist and Fog 57 14 57 14 100 100 Calm 29.79 1009 2 3 0.00 0.00
4:53 am 04:53 Mostly Cloudy with Mist and Fog 58 14.4 57 13.9 97 97 Calm 29.78 1009 3 4 0.00 0.00
4:56 am 04:56 Mostly Cloudy with Mist and Fog 58 14.4 57 13.9 97 97 Calm 29.79 1009 3 5 0.00 0.00
5:20 am 05:20 Cloudy with Mist and Fog 60 15.6 60 15.6 100 100 Calm 29.79 1009 6 10 0.00 0.00
5:53 am 05:53 Cloudy with Mist and Fog 61 16.1 60 15.6 97 97 Calm 29.79 1009 5 8 0.00 0.00
6:53 am 06:53 Cloudy with Mist and Fog 61 16.1 60 15.6 97 97 Calm 29.81 1009 3 5 0.00 0.00
7:01 am 07:01 Cloudy with Mist and Fog 61 16.1 60 15.6 97 97 Calm 29.81 1010 2 3 0.00 0.00
7:27 am 07:27 Cloudy with Mist and Fog 62 16.7 61 16.1 96 96 Calm 29.82 1010 2 2 0.00 0.00
7:51 am 07:51 Cloudy with Mist and Fog 63 17 61 16 94 94 Calm 29.82 1010 2 3 0.00 0.00
7:53 am 07:53 Cloudy with Mist and Fog 62 16.7 62 16.7 100 100 Calm 29.82 1010 2 3 0.00 0.00
8:53 am 08:53 Cloudy with Mist and Fog 63 17.2 62 16.7 97 97 VRB 3 6 29.83 1010 3 4 0.00 0.00
9:34 am 09:34 Cloudy with Mist and Fog 65 18.3 63 17.2 93 93 Calm 29.83 1010 3 5 0.00 0.00
9:51 am 09:51 Cloudy with Mist and Fog 64 18 63 17 94 94 VRB 3 6 29.83 1010 4 6 0.00 0.00
9:53 am 09:53 Cloudy with Mist and Fog 65 18.3 63 17.2 93 93 VRB 3 6 29.83 1010 4 6 0.00 0.00
10:06 am 10:06 Cloudy with Mist and Fog 65 18.3 63 17.2 93 93 Calm 29.84 1010 4 6 0.00 0.00
10:53 am 10:53 Cloudy with Mist and Fog 67 19.4 64 17.8 91 91 VRB 5 7 29.84 1010 5 8 0.00 0.00
11:53 am 11:53 Cloudy with Mist and Fog 67 19.4 64 17.8 91 91 VRB 3 6 29.84 1011 5 8 0.00 0.00
12:27 pm 12:27 Cloudy with Mist and Fog 69 20.6 65 18.3 87 87 Calm 29.82 1010 6 10 0.00 0.00
12:53 pm 12:53 Cloudy with Haze 70 21.1 64 17.8 82 82 Calm 29.81 1010 6 10 0.00 0.00
1:53 pm 13:53 Mostly Cloudy 73 22.8 66 18.9 79 79 VRB 3 6 29.80 1009 7 11 0.00 0.00
2:03 pm 14:03 Partly Cloudy 74 23.3 66 18.9 76 76 VRB 3 6 29.78 1008 8 13 0.00 0.00
2:53 pm 14:53 Mostly Sunny 79 26.1 66 18.9 65 65 VRB 3 6 29.76 1008 10 16 0.00 0.00
3:53 pm 15:53 Mostly Sunny 80 26.7 65 18.3 60 60 Calm 29.72 1007 10 16 0.00 0.00
4:53 pm 16:53 Partly Cloudy 82 27.8 64 17.8 55 55 VRB 5 7 29.72 1006 10 16 0.00 0.00
5:53 pm 17:53 Mostly Sunny 79 26.1 63 17.2 58 58 VRB 3 6 29.71 1006 10 16 0.00 0.00
6:53 pm 18:53 Sunny 77 25 65 18.3 66 66 Calm 29.70 1006 10 16 0.00 0.00
7:43 pm 19:43 Partly Cloudy with Thunderstorms 73 22.8 67 19.4 81 81 Calm 29.70 1006 10 16 0.00 0.00
7:53 pm 19:53 Mostly Cloudy with Thunderstorms 72 22.2 67 19.4 84 84 Calm 29.71 1006 10 16 0.00 0.00
8:53 pm 20:53 Cloudy with Nearby Thunderstorms 69 20.6 64 17.8 84 84 NE 6 9 29.72 1006 10 16 0.05 1.27
9:16 pm 21:16 Cloudy with Strong Thunderstorms 67 19.4 65 18.3 93 93 VRB 5 7 29.73 1007 3 4 0.14 3.56
9:32 pm 21:32 Cloudy with Thunderstorms 67 19.4 65 18.3 93 93 VRB 7 11 29.72 1006 7 11 0.19 4.83
9:53 pm 21:53 Cloudy with Thunderstorms 66 18.9 63 17.2 90 90 VRB 3 6 29.70 1006 10 16 0.20 5.08
10:04 pm 22:04 Cloudy with Light Rain 65 18.3 63 17.2 93 93 Calm 29.70 1006 9 14 0.01 0.25
10:24 pm 22:24 Mostly Cloudy with Thunderstorms 65 18.3 62 16.7 90 90 Calm 29.71 1006 10 16 0.02 0.51
10:48 pm 22:48 Mostly Cloudy 64 18 63 17 94 94 VRB 3 6 29.72 1006 10 16 0.04 1.02
10:53 pm 22:53 Mostly Cloudy 65 18.3 62 16.7 90 90 E 6 9 29.71 1006 10 16 0.04 1.02
11:53 pm 23:53 Clear 64 17.8 62 16.7 93 93 VRB 3 6 29.68 1005 10 16 0.00 0.00

Powered by AerisWeather